M0ZPG Weather Reports


Display with metric or nautical units.
time (UTC)temp
F
wind
direction
speed
MPH
gust
MPH
rain 1hr
in
rain 24hr
in
rain mn
in
humidity
%
barometer
mb
20260503020003 56 209 0.0 2.0 0.00 0.02 0.01 88 1008.6
20260503015404 56 208 0.0 2.0 0.00 0.02 0.01 88 1008.7
20260503014505 56 199 0.0 2.0 0.00 0.02 0.01 88 1008.8
20260503013603 56 198 0.0 2.0 0.00 0.02 0.01 88 1008.8
20260503012706 56 198 0.0 1.0 0.00 0.02 0.01 88 1008.9
20260503012013 56 198 0.0 1.0 0.00 0.02 0.01 88 1009.0
20260503010903 56 198 0.0 1.0 0.00 0.02 0.01 88 1009.1
20260503010005 56 202 0.0 2.0 0.00 0.02 0.01 88 1009.1
20260503005615 56 222 0.0 2.0 0.00 0.02 0.01 88 1009.2
20260503004504 57 250 0.0 4.0 0.00 0.02 0.01 88 1009.3
20260503003820 57 249 0.0 4.0 0.00 0.02 0.01 88 1009.2
20260503002704 57 232 0.0 4.0 0.00 0.02 0.01 88 1009.3
20260503001806 57 205 0.0 2.0 0.00 0.02 0.01 88 1009.5
20260503001116 57 208 0.0 3.0 0.01 0.02 0.01 88 1009.5
20260503000006 57 200 1.0 3.0 0.01 0.02 0.01 88 1009.5
20260502235405 57 215 1.0 4.0 0.01 0.02 0.01 87 1009.5
20260502234508 57 180 1.0 4.0 0.01 0.02 0.01 88 1009.6
20260502233815 57 173 1.0 5.0 0.01 0.02 0.01 88 1009.7
20260502232703 57 199 1.0 4.0 0.01 0.02 0.01 87 1009.9
20260502231803 58 231 1.0 3.0 0.01 0.02 0.01 87 1009.9
20260502230908 58 230 0.0 3.0 0.00 0.01 0.00 88 1009.8
20260502230005 58 262 1.0 6.0 0.00 0.01 0.00 88 1009.9
20260502225405 58 260 0.0 3.0 0.00 0.01 0.01 88 1009.8
20260502224506 58 150 0.0 3.0 0.00 0.01 0.01 88 1009.9
20260502222703 58 143 0.0 2.0 0.00 0.01 0.01 87 1010.0
20260502222015 58 143 0.0 2.0 0.00 0.01 0.01 87 1009.9
20260502220215 58 142 0.0 2.0 0.00 0.01 0.01 87 1010.2
20260502214714 58 140 0.0 1.0 0.00 0.01 0.01 87 1009.9
20260502212705 58 118 0.0 3.0 0.00 0.01 0.01 87 1010.0
20260502212016 58 120 1.0 4.0 0.00 0.01 0.01 87 1010.1
20260502210003 58 132 1.0 4.0 0.00 0.01 0.01 86 1010.0
20260502204503 59 119 1.0 5.0 0.00 0.01 0.01 86 1010.4
20260502203605 59 118 1.0 4.0 0.00 0.01 0.01 85 1010.4
20260502202704 59 98 0.0 4.0 0.00 0.01 0.01 85 1010.6
20260502202017 59 98 0.0 3.0 0.00 0.01 0.01 85 1010.5
20260502201119 60 94 1.0 6.0 0.00 0.01 0.01 84 1010.2
20260502200216 60 103 1.0 7.0 0.00 0.01 0.01 84 1010.2
20260502194504 60 115 0.0 2.0 0.00 0.01 0.01 83 1010.6
20260502193606 60 120 1.0 4.0 0.00 0.01 0.01 83 1010.6
20260502192705 60 115 1.0 3.0 0.00 0.01 0.01 82 1010.5
20260502191803 60 143 1.0 4.0 0.00 0.01 0.01 82 1010.4
20260502190005 60 91 1.0 4.0 0.00 0.01 0.01 83 1010.5
20260502185406 60 92 1.0 3.0 0.00 0.01 0.01 83 1010.6
20260502183605 60 92 0.0 3.0 0.00 0.01 0.01 82 1010.6
20260502182704 60 89 1.0 6.0 0.00 0.01 0.01 83 1010.8
20260502181803 59 98 1.0 4.0 0.00 0.01 0.01 83 1010.7
20260502180903 59 81 1.0 4.0 0.00 0.01 0.01 83 1010.9
20260502180217 59 91 1.0 6.0 0.00 0.01 0.01 83 1011.0
20260502170213 60 137 0.0 3.0 0.01 0.01 0.01 82 1011.7
20260502163603 65 130 2.0 9.0 0.00 0.00 0.00 71 1012.3
20260502162703 66 136 2.0 7.0 0.00 0.00 0.00 65 1012.0
20260502161803 67 146 2.0 5.0 0.00 0.00 0.00 64 1011.9
20260502160904 68 136 2.0 8.0 0.00 0.00 0.00 62 1011.7
20260502152015 71 147 2.0 5.0 0.00 0.00 0.00 52 1012.4
20260502150906 72 144 2.0 6.0 0.00 0.00 0.00 52 1012.4
20260502123605 72 178 0.0 3.0 0.00 0.00 0.00 46 1014.7
20260502122703 71 179 0.0 3.0 0.00 0.00 0.00 47 1014.7
20260502121804 71 183 1.0 3.0 0.00 0.00 0.00 45 1014.9
20260502120905 70 208 1.0 3.0 0.00 0.00 0.00 45 1015.0
20260502115406 70 250 1.0 3.0 0.00 0.00 0.00 48 1015.2
20260502114505 70 203 0.0 3.0 0.00 0.00 0.00 51 1015.4
20260502113605 69 191 1.0 6.0 0.00 0.00 0.00 46 1015.6
20260502112705 68 175 1.0 2.0 0.00 0.00 0.00 48 1015.5
20260502111805 68 165 1.0 2.0 0.00 0.00 0.00 50 1015.6
20260502110906 67 157 0.0 2.0 0.00 0.00 0.00 49 1015.5
20260502110004 66 156 1.0 3.0 0.00 0.00 0.00 57 1015.8
20260502105403 66 164 1.0 5.0 0.00 0.00 0.00 60 1016.0
20260502104504 67 180 1.0 3.0 0.00 0.00 0.00 59 1016.2
20260502103603 66 181 1.0 3.0 0.00 0.00 0.00 61 1016.1
20260502102705 66 199 1.0 3.0 0.00 0.00 0.00 62 1016.0
20260502100903 64 272 0.0 3.0 0.00 0.00 0.00 67 1016.4
20260502100218 64 271 0.0 2.0 0.00 0.00 0.00 69 1016.4
20260502090905 60 235 0.0 3.0 0.00 0.00 0.00 75 1016.8
20260502070905 52 237 0.0 3.0 0.00 0.00 0.00 90 1017.4
20260502070003 51 245 0.0 2.0 0.00 0.00 0.00 91 1017.4
20260502065403 51 246 0.0 4.0 0.00 0.00 0.00 91 1017.4
20260502064506 51 248 0.0 3.0 0.00 0.00 0.00 91 1017.4
20260502063605 51 247 0.0 3.0 0.00 0.00 0.00 91 1017.3
20260502062918 50 244 1.0 4.0 0.00 0.00 0.00 92 1017.4
20260502061803 50 179 1.0 3.0 0.00 0.00 0.00 92 1017.3
20260502061118 50 176 0.0 3.0 0.00 0.00 0.00 92 1017.4
20260502060215 50 186 1.0 4.0 0.00 0.00 0.00 91 1017.4
20260502055616 50 205 1.0 3.0 0.00 0.00 0.00 92 1017.4
20260502054505 50 180 0.0 1.0 0.00 0.00 0.00 92 1017.3
20260502053816 50 180 0.0 2.0 0.00 0.00 0.00 92 1017.4
20260502052703 50 0 0.0 0.0 0.00 0.00 0.00 92 1017.3
20260502051803 50 180 0.0 1.0 0.00 0.00 0.00 92 1017.3
20260502050903 50 180 0.0 2.0 0.00 0.00 0.00 92 1017.3
20260502050006 49 180 0.0 1.0 0.00 0.00 0.00 92 1017.3
20260502045403 49 180 0.0 1.0 0.00 0.00 0.00 92 1017.3
20260502044505 49 0 0.0 0.0 0.00 0.00 0.00 92 1017.3
20260502043605 49 180 0.0 1.0 0.00 0.00 0.00 92 1017.2
20260502042705 49 0 0.0 0.0 0.00 0.00 0.00 92 1017.1
20260502041804 49 180 0.0 1.0 0.00 0.00 0.00 91 1017.1
20260502040905 49 0 0.0 0.0 0.00 0.00 0.00 91 1017.2
20260502040005 49 180 0.0 1.0 0.00 0.00 0.00 91 1017.1
20260502035405 50 180 0.0 1.0 0.00 0.00 0.00 91 1017.3
20260502034503 50 180 0.0 1.0 0.00 0.00 0.00 91 1017.4
20260502033813 50 180 0.0 1.0 0.00 0.00 0.00 91 1017.4
20260502032920 50 180 0.0 2.0 0.00 0.00 0.00 91 1017.4
20260502032017 50 180 0.0 2.0 0.00 0.00 0.00 91 1017.5
20260502031114 50 180 0.0 1.0 0.00 0.00 0.00 90 1017.6
20260502030005 50 180 0.0 2.0 0.00 0.00 0.00 90 1017.5
20260502025403 50 180 0.0 2.0 0.00 0.00 0.00 90 1017.5
20260502024506 50 180 0.0 1.0 0.00 0.00 0.00 89 1017.6
20260502023818 51 180 0.0 1.0 0.00 0.00 0.00 89 1017.6
20260502022703 51 180 0.0 1.0 0.00 0.00 0.00 89 1017.6
20260502021805 51 180 0.0 3.0 0.00 0.00 0.00 89 1017.6
20260502020906 51 179 0.0 3.0 0.00 0.00 0.00 89 1017.6